Weather History for KCMD - March, 2014

Change the Weather History Date:

Tuesday, March 25, 2014

  Actual Average Record
Temperature  
Mean Temperature 38 °F -  
Max Temperature 45 °F - - ()
Min Temperature 32 °F - - ()
Degree Days  
Heating Degree Days 26    
Moisture  
Dew Point 20 °F    
Average Humidity 46    
Maximum Humidity 63    
Minimum Humidity 29    
Precipitation  
Precipitation 0.00 in - - ()
Sea Level Pressure  
Sea Level Pressure 30.13 in    
Wind  
Wind Speed 7 mph (NNW)    
Max Wind Speed 21 mph    
Max Gust Speed 29 mph    
Visibility 10 miles    
Events      
T = Trace of Precipitation, MM = Missing Value Source: NWS Daily Summary

Daily Weather History Graph

Daily Weather History Graph

Search for Another Location

Airport or City:

Trip Planner

Search our weather history database for the weather conditions in past years. The results will help you decide how hot, cold, wet, or windy it might be!

Date:

Astronomy

Mar. 25, 2014 Rise Set
Actual Time 6:44 AM CDT 7:02 PM CDT
Civil Twilight 6:19 AM CDT 7:28 PM CDT
Nautical Twilight 5:49 AM CDT 7:57 PM CDT
Astronomical Twilight 5:20 AM CDT 8:27 PM CDT
Moon 2:52 AM CDT (3/25) 1:45 PM CDT (3/25)
Length of Visible Light 13h 08m
Length of Day
12h 18m
Waning Crescent, 32% of the Moon is Illuminated
Mar 25
Waning Crescent
Mar 30
New
Apr 7
First Quarter
Apr 15
Full
Apr 22
Last Quarter

Hourly Weather History & Observations

Time (CDT) Temp. Windchill Dew Point Humidity Pressure Visibility Wind Dir Wind Speed Gust Speed Precip Events Conditions
12:15 AM 44.6 °F 43.1 °F 25.2 °F 46% 30.03 in 10.0 mi North 3.5 mph - N/A   Mostly Cloudy
12:35 AM 44.2 °F 41.8 °F 25.3 °F 47% 30.03 in 10.0 mi NNW 4.6 mph - N/A   Mostly Cloudy
12:55 AM 43.9 °F 41.3 °F 24.8 °F 47% 30.03 in 10.0 mi NNW 4.6 mph - N/A   Mostly Cloudy
1:15 AM 43.9 °F 41.3 °F 24.6 °F 47% 30.03 in 10.0 mi NNW 4.6 mph - N/A   Mostly Cloudy
1:35 AM 43.3 °F 39.9 °F 24.1 °F 47% 30.03 in 10.0 mi NNW 5.8 mph - N/A   Mostly Cloudy
1:55 AM 43.2 °F 40.5 °F 23.2 °F 45% 30.02 in 10.0 mi North 4.6 mph - N/A   Mostly Cloudy
2:15 AM 42.8 °F 40.1 °F 21.7 °F 43% 30.02 in 10.0 mi North 4.6 mph - N/A   Mostly Cloudy
2:35 AM 41.7 °F 38.8 °F 20.8 °F 43% 30.01 in 10.0 mi North 4.6 mph - N/A   Scattered Clouds
2:55 AM 40.6 °F 38.6 °F 20.5 °F 45% 30.00 in 10.0 mi North 3.5 mph - N/A   Clear
3:15 AM 39.9 °F - 21.0 °F 47% 30.00 in 10.0 mi Calm Calm - N/A   Clear
3:35 AM 38.8 °F 35.4 °F 21.2 °F 49% 30.00 in 10.0 mi North 4.6 mph - N/A   Clear
3:55 AM 38.5 °F 36.1 °F 21.0 °F 50% 30.01 in 10.0 mi NNW 3.5 mph - N/A   Clear
4:15 AM 38.3 °F 35.9 °F 20.8 °F 50% 30.01 in 10.0 mi NNW 3.5 mph - N/A   Clear
4:35 AM 37.9 °F 34.4 °F 20.5 °F 49% 30.01 in 10.0 mi NNW 4.6 mph - N/A   Clear
4:55 AM 37.6 °F 33.1 °F 20.5 °F 50% 30.01 in 10.0 mi NNW 5.8 mph - N/A   Clear
5:15 AM 36.9 °F 31.4 °F 21.2 °F 53% 30.01 in 10.0 mi NW 6.9 mph - N/A   Clear
5:35 AM 35.8 °F 30.9 °F 21.7 °F 57% 30.02 in 10.0 mi NNW 5.8 mph - N/A   Clear
5:55 AM 35.2 °F 31.2 °F 21.9 °F 58% 30.03 in 10.0 mi NNW 4.6 mph - N/A   Clear
6:15 AM 34.3 °F 31.4 °F 21.9 °F 60% 30.04 in 10.0 mi NNW 3.5 mph - N/A   Clear
6:35 AM 33.6 °F - 21.7 °F 62% 30.05 in 10.0 mi Calm Calm - N/A   Clear
6:55 AM 33.1 °F - 21.6 °F 63% 30.06 in 10.0 mi Calm Calm - N/A   Clear
7:15 AM 32.9 °F 29.8 °F 21.4 °F 63% 30.07 in 10.0 mi NW 3.5 mph - N/A   Clear
7:35 AM 33.8 °F - 21.4 °F 60% 30.07 in 10.0 mi Calm Calm - N/A   Clear
7:55 AM 35.4 °F 32.6 °F 21.4 °F 57% 30.08 in 10.0 mi NW 3.5 mph - N/A   Clear
8:15 AM 36.5 °F 31.8 °F 21.6 °F 55% 30.08 in 10.0 mi NW 5.8 mph - N/A   Clear
8:35 AM 37.6 °F 31.6 °F 21.2 °F 52% 30.09 in 10.0 mi NW 8.1 mph - N/A   Clear
8:55 AM 38.7 °F 32.9 °F 21.7 °F 51% 30.11 in 10.0 mi NW 8.1 mph - N/A   Scattered Clouds
9:15 AM 39.4 °F 35.2 °F 23.2 °F 52% 30.11 in 10.0 mi NW 5.8 mph - N/A   Scattered Clouds
9:35 AM 40.6 °F 32.7 °F 24.3 °F 52% 30.12 in 10.0 mi NW 15.0 mph 20.7 mph N/A   Scattered Clouds
9:55 AM 41.2 °F 33.7 °F 24.4 °F 51% 30.14 in 10.0 mi NW 13.8 mph 27.6 mph N/A   Mostly Cloudy
10:15 AM 41.2 °F 32.4 °F 24.6 °F 52% 30.15 in 10.0 mi NNW 18.4 mph 23.0 mph N/A   Scattered Clouds
10:35 AM 41.9 °F 34.3 °F 24.8 °F 51% 30.15 in 10.0 mi NNW 15.0 mph 26.5 mph N/A   Scattered Clouds
10:55 AM 42.8 °F 36.2 °F 25.5 °F 51% 30.15 in 10.0 mi WNW 12.7 mph 24.2 mph N/A   Scattered Clouds
11:15 AM 43.2 °F 36.2 °F 26.6 °F 52% 30.15 in 10.0 mi NW 13.8 mph 25.3 mph N/A   Scattered Clouds
11:35 AM 41.9 °F 34.6 °F 26.1 °F 53% 30.16 in 10.0 mi NW 13.8 mph 25.3 mph N/A   Mostly Cloudy
11:55 AM 40.6 °F 33.8 °F 25.5 °F 55% 30.16 in 10.0 mi NW 11.5 mph 21.9 mph N/A   Mostly Cloudy
12:15 PM 41.0 °F 34.3 °F 24.4 °F 52% 30.16 in 10.0 mi NNW 11.5 mph 21.9 mph N/A   Mostly Cloudy
12:35 PM 42.4 °F 36.1 °F 24.3 °F 49% 30.16 in 10.0 mi NW 11.5 mph 26.5 mph N/A   Scattered Clouds
1:15 PM 42.6 °F 35.9 °F 23.5 °F 47% 30.15 in 10.0 mi North 12.7 mph 20.7 mph N/A   Scattered Clouds
1:35 PM 42.6 °F 35.9 °F 22.6 °F 45% 30.14 in 10.0 mi NNW 12.7 mph 23.0 mph N/A   Scattered Clouds
1:55 PM 44.6 °F 37.8 °F 21.6 °F 40% 30.14 in 10.0 mi NW 15.0 mph 23.0 mph N/A   Scattered Clouds
2:15 PM 43.5 °F 36.7 °F 20.5 °F 40% 30.15 in 10.0 mi NW 13.8 mph 27.6 mph N/A   Scattered Clouds
2:35 PM 43.2 °F 36.2 °F 19.6 °F 39% 30.15 in 10.0 mi NNW 13.8 mph 18.4 mph N/A   Scattered Clouds
2:55 PM 43.3 °F 36.1 °F 19.0 °F 38% 30.15 in 10.0 mi WNW 15.0 mph 26.5 mph N/A   Scattered Clouds
3:15 PM 44.2 °F 35.9 °F 18.7 °F 36% 30.15 in 10.0 mi WNW 20.7 mph 28.8 mph N/A   Scattered Clouds
3:35 PM 45.1 °F 39.1 °F 18.5 °F 35% 30.15 in 10.0 mi NNW 12.7 mph 24.2 mph N/A   Scattered Clouds
3:55 PM 45.3 °F 38.4 °F 18.7 °F 35% 30.15 in 10.0 mi WNW 16.1 mph 24.2 mph N/A   Scattered Clouds
4:15 PM 44.2 °F 38.4 °F 16.9 °F 33% 30.15 in 10.0 mi WNW 11.5 mph 24.2 mph N/A   Scattered Clouds
4:35 PM 43.0 °F 35.7 °F 16.0 °F 34% 30.16 in 10.0 mi NNW 15.0 mph 23.0 mph N/A   Clear
4:55 PM 43.3 °F 37.2 °F 15.3 °F 32% 30.16 in 10.0 mi NNW 11.5 mph 20.7 mph N/A   Clear
5:15 PM 44.8 °F 38.0 °F 14.9 °F 30% 30.16 in 10.0 mi North 15.0 mph 20.7 mph N/A   Scattered Clouds
5:35 PM 43.9 °F 37.5 °F 13.8 °F 30% 30.17 in 10.0 mi NNW 12.7 mph 23.0 mph N/A   Scattered Clouds
5:55 PM 43.5 °F 36.7 °F 12.9 °F 29% 30.18 in 10.0 mi NNW 13.8 mph 26.5 mph N/A   Clear
6:15 PM 42.6 °F 37.2 °F 12.0 °F 29% 30.19 in 10.0 mi NNW 9.2 mph 19.6 mph N/A   Clear
6:35 PM 41.5 °F 37.8 °F 12.4 °F 31% 30.19 in 10.0 mi WNW 5.8 mph 17.3 mph N/A   Clear
6:55 PM 40.5 °F 35.1 °F 12.6 °F 32% 30.19 in 10.0 mi NW 8.1 mph 18.4 mph N/A   Clear
7:15 PM 39.6 °F 33.5 °F 12.9 °F 34% 30.20 in 10.0 mi WNW 9.2 mph - N/A   Clear
7:35 PM 38.8 °F 33.2 °F 13.3 °F 35% 30.20 in 10.0 mi NW 8.1 mph - N/A   Clear
7:55 PM 38.3 °F 33.9 °F 13.5 °F 36% 30.21 in 10.0 mi NNW 5.8 mph - N/A   Clear
8:15 PM 37.8 °F 32.5 °F 13.6 °F 37% 30.21 in 10.0 mi NW 6.9 mph - N/A   Clear
8:35 PM 37.2 °F 32.6 °F 13.8 °F 38% 30.22 in 10.0 mi NW 5.8 mph - N/A   Clear
8:55 PM 36.3 °F 32.5 °F 14.7 °F 41% 30.23 in 10.0 mi NNW 4.6 mph - N/A   Clear
9:15 PM 35.8 °F 33.0 °F 15.1 °F 43% 30.23 in 10.0 mi North 3.5 mph - N/A   Clear
9:35 PM 35.6 °F 30.7 °F 15.8 °F 44% 30.25 in 10.0 mi NNW 5.8 mph - N/A   Clear
9:55 PM 35.2 °F 32.4 °F 15.8 °F 45% 30.25 in 10.0 mi North 3.5 mph - N/A   Clear
10:15 PM 34.3 °F - 15.8 °F 47% 30.26 in 10.0 mi Calm Calm - N/A   Clear
10:35 PM 33.6 °F 30.6 °F 16.0 °F 48% 30.26 in 10.0 mi North 3.5 mph - N/A   Clear
10:55 PM 33.4 °F - 16.0 °F 49% 30.26 in 10.0 mi Calm Calm - N/A   Clear
11:15 PM 33.1 °F - 15.8 °F 49% 30.26 in 10.0 mi Calm Calm - N/A   Clear
11:35 PM 32.5 °F 29.3 °F 16.0 °F 51% 30.26 in 10.0 mi North 3.5 mph - N/A   Clear
11:55 PM 32.0 °F - 16.2 °F 52% 30.26 in 10.0 mi Calm Calm - N/A   Clear